H1 CPF 2 NER 2025 3 22 9 081 01 glonass137 H2 1705501 9137 42939 2025 3 22 0 0 0 2025 3 25 23 45 0 900 1 1 0 0 0 1 H9 10 0 60756 0.00000 0 -21925528.636 -12776540.674 -2466679.778 10 0 60756 900.00000 0 -21524249.019 -12457339.359 -5615528.492 10 0 60756 1800.00000 0 -20746955.860 -12026506.229 -8655119.350 10 0 60756 2700.00000 0 -19594435.263 -11539947.509 -11526308.754 10 0 60756 3600.00000 0 -18080527.431 -11053463.649 -14173234.961 10 0 60756 4500.00000 0 -16231732.138 -10620210.687 -16544410.900 10 0 60756 5400.00000 0 -14086294.979 -10288287.711 -18593729.929 10 0 60756 6300.00000 0 -11692812.290 -10098553.213 -20281364.611 10 0 60756 7200.00000 0 -9108412.934 -10082763.225 -21574540.929 10 0 60756 8100.00000 0 -6396592.803 -10262110.205 -22448173.105 10 0 60756 9000.00000 0 -3624792.258 -10646224.492 -22885347.084 10 0 60756 9900.00000 0 -861817.322 -11232680.417 -22877643.813 10 0 60756 10800.00000 0 1824788.359 -12007027.770 -22425296.642 10 0 60756 11700.00000 0 4371312.022 -12943347.140 -21537180.367 10 0 60756 12600.00000 0 6720274.628 -14005305.580 -20230632.580 10 0 60756 13500.00000 0 8822569.133 -15147668.100 -18531111.228 10 0 60756 14400.00000 0 10639246.442 -16318201.311 -16471695.205 10 0 60756 15300.00000 0 12142876.026 -17459889.170 -14092437.877 10 0 60756 16200.00000 0 13318426.091 -18513367.634 -11439586.124 10 0 60756 17100.00000 0 14163628.174 -19419475.886 -8564680.078 10 0 60756 18000.00000 0 14688812.630 -20121816.824 -5523551.085 10 0 60756 18900.00000 0 14916223.536 -20569219.132 -2375237.371 10 0 60756 19800.00000 0 14878843.340 -20717997.339 819161.495 10 0 60756 20700.00000 0 14618777.950 -20533914.743 3997668.963 10 0 60756 21600.00000 0 14185271.380 -19993766.550 7098631.697 10 0 60756 22500.00000 0 13632434.370 -19086516.494 10061912.298 10 0 60756 23400.00000 0 13016783.275 -17813938.933 12830051.495 10 0 60756 24300.00000 0 12394693.184 -16190739.052 15349377.510 10 0 60756 25200.00000 0 11819872.684 -14244145.540 17571041.473 10 0 60756 26100.00000 0 11340966.462 -12012992.056 19451959.301 10 0 60756 27000.00000 0 10999386.503 -9546324.868 20955642.390 10 0 60756 27900.00000 0 10827462.860 -6901593.612 22052901.649 10 0 60756 28800.00000 0 10846991.639 -4142499.259 22722411.791 10 0 60756 29700.00000 0 11068241.260 -1336587.414 22951125.380 10 0 60756 30600.00000 0 11489458.956 1447314.471 22734528.801 10 0 60756 31500.00000 0 12096898.798 4141710.868 22076735.159 10 0 60756 32400.00000 0 12865370.786 6682995.694 20990411.925 10 0 60756 33300.00000 0 13759288.907 9013848.466 19496544.117 10 0 60756 34200.00000 0 14734175.152 11085370.355 17624036.750 10 0 60756 35100.00000 0 15738557.255 12858871.982 15409163.315 10 0 60756 36000.00000 0 16716181.213 14307238.928 12894869.930 10 0 60756 36900.00000 0 17608446.003 15415818.300 10129947.828 10 0 60756 37800.00000 0 18356958.163 16182789.540 7168089.516 10 0 60756 38700.00000 0 18906098.394 16619004.207 4066846.543 10 0 60756 39600.00000 0 19205491.312 16747301.792 886509.077 10 0 60756 40500.00000 0 19212273.225 16601330.829 -2311070.637 10 0 60756 41400.00000 0 18893061.037 16223925.610 -5463687.493 10 0 60756 42300.00000 0 18225537.843 15665107.800 -8510001.048 10 0 60756 43200.00000 0 17199586.960 14979798.289 -11390736.722 10 0 60756 44100.00000 0 15817925.276 14225336.984 -14049846.398 10 0 60756 45000.00000 0 14096208.109 13458916.374 -16435604.958 10 0 60756 45900.00000 0 12062600.201 12735038.277 -18501620.792 10 0 60756 46800.00000 0 9756830.100 12103101.951 -20207740.277 10 0 60756 47700.00000 0 7228767.029 11605225.956 -21520828.505 10 0 60756 48600.00000 0 4536579.363 11274395.950 -22415411.260 10 0 60756 49500.00000 0 1744551.284 11133016.528 -22874166.167 10 0 60756 50400.00000 0 -1079351.633 11191927.942 -22888253.986 10 0 60756 51300.00000 0 -3866066.891 11449928.700 -22457484.207 10 0 60756 52200.00000 0 -6548062.576 11893823.678 -21590312.312 10 0 60756 53100.00000 0 -9061899.224 12498995.178 -20303669.254 10 0 60756 54000.00000 0 -11350620.394 13230472.401 -18622626.858 10 0 60756 54900.00000 0 -13365873.515 14044453.879 -16579905.885 10 0 60756 55800.00000 0 -15069673.906 14890218.429 -14215236.461 10 0 60756 56700.00000 0 -16435739.832 15712343.903 -11574583.359 10 0 60756 57600.00000 0 -17450344.356 16453140.086 -8709251.177 10 0 60756 58500.00000 0 -18112649.904 17055193.121 -5674886.821 10 0 60756 59400.00000 0 -18434513.075 17463914.125 -2530398.689 10 0 60756 60300.00000 0 -18439769.369 17629984.509 663186.418 10 0 60756 61200.00000 0 -18163029.175 17511594.828 3843906.343 10 0 60756 62100.00000 0 -17648036.800 17076382.697 6950063.580 10 0 60756 63000.00000 0 -16945662.457 16302987.946 9921418.958 10 0 60756 63900.00000 0 -16111612.378 15182159.276 12700355.879 10 0 60756 64800.00000 0 -15203953.779 13717365.411 15232992.805 10 0 60756 65700.00000 0 -14280558.953 11924884.485 17470222.767 10 0 60756 66600.00000 0 -13396575.859 9833367.052 19368660.241 10 0 60756 67500.00000 0 -12602031.288 7482889.975 20891477.626 10 0 60756 68400.00000 0 -11939666.887 4923539.406 22009115.782 10 0 60756 69300.00000 0 -11443098.570 2213580.564 22699855.365 10 0 60756 70200.00000 0 -11135376.234 -582711.043 22950238.378 10 0 60756 71100.00000 0 -11028004.081 -3397468.358 22755331.955 10 0 60756 72000.00000 0 -11120462.710 -6161802.490 22118829.244 10 0 60756 72900.00000 0 -11400253.302 -8808418.081 21052985.081 10 0 60756 73800.00000 0 -11843462.547 -11274166.964 19578387.080 10 0 60756 74700.00000 0 -12415825.228 -13502434.907 17723565.764 10 0 60756 75600.00000 0 -13074240.451 -15445262.937 15524450.326 10 0 60756 76500.00000 0 -13768678.425 -17065115.371 13023679.540 10 0 60756 77400.00000 0 -14444397.914 -18336221.027 10269780.341 10 0 60756 78300.00000 0 -15044381.119 -19245431.755 7316229.286 10 0 60756 79200.00000 0 -15511883.128 -19792562.396 4220414.692 10 0 60756 80100.00000 0 -15792987.801 -19990198.029 1042519.563 10 0 60756 81000.00000 0 -15839061.256 -19862976.868 -2155652.713 10 0 60756 81900.00000 0 -15608998.174 -19446379.360 -5311886.522 10 0 60756 82800.00000 0 -15071164.654 -18785075.127 -8364771.680 10 0 60756 83700.00000 0 -14204954.125 -17930898.234 -11254905.981 10 0 60756 84600.00000 0 -13001889.207 -16940537.097 -13926058.305 10 0 60756 85500.00000 0 -11466221.723 -15873037.497 -16326268.772 10 0 60757 0.00000 0 -9615004.593 -14787225.060 -18408863.739 10 0 60757 900.00000 0 -7477630.534 -13739156.099 -20133366.591 10 0 60757 1800.00000 0 -5094858.647 -12779706.320 -21466283.728 10 0 60757 2700.00000 0 -2517365.744 -11952397.291 -22381754.408 10 0 60757 3600.00000 0 196115.193 -11291553.625 -22862049.304 10 0 60757 4500.00000 0 2980993.074 -10820867.541 -22897909.786 10 0 60757 5400.00000 0 5769261.972 -10552430.675 -22488721.732 10 0 60757 6300.00000 0 8492088.417 -10486273.145 -21642521.055 10 0 60757 7200.00000 0 11082435.576 -10610428.375 -20375831.350 10 0 60757 8100.00000 0 13477615.892 -10901520.059 -18713337.185 10 0 60757 9000.00000 0 15621666.821 -11325845.747 -16687399.640 10 0 60757 9900.00000 0 17467451.724 -11840910.660 -14337423.666 10 0 60757 10800.00000 0 18978399.487 -12397346.511 -11709089.606 10 0 60757 11700.00000 0 20129811.563 -12941133.953 -8853463.826 10 0 60757 12600.00000 0 20909683.096 -13416034.540 -5826005.761 10 0 60757 13500.00000 0 21319005.158 -13766129.336 -2685490.675 10 0 60757 14400.00000 0 21371536.747 -13938356.815 507130.883 10 0 60757 15300.00000 0 21093057.370 -13884942.781 3689914.696 10 0 60757 16200.00000 0 20520132.672 -13565619.589 6801122.576 10 0 60757 17100.00000 0 19698445.913 -12949540.862 9780416.881 10 0 60757 18000.00000 0 18680766.080 -12016810.690 12570026.713 10 0 60757 18900.00000 0 17524638.452 -10759562.523 15115863.434 10 0 60757 19800.00000 0 16289894.804 -9182541.732 17368564.224 10 0 60757 20700.00000 0 15036087.750 -7303166.583 19284443.926 10 0 60757 21600.00000 0 13819956.563 -5151063.999 20826337.317 10 0 60757 22500.00000 0 12693030.353 -2767098.213 21964316.124 10 0 60757 23400.00000 0 11699468.510 -201931.403 22676267.437 10 0 60757 24300.00000 0 10874228.381 2485825.334 22948322.767 10 0 60757 25200.00000 0 10241636.460 5231795.388 22775129.669 10 0 60757 26100.00000 0 9814422.637 7968265.294 22159960.626 10 0 60757 27000.00000 0 9593257.822 10626759.246 21114656.782 10 0 60757 27900.00000 0 9566814.404 13140653.848 19659406.996 10 0 60757 28800.00000 0 9712347.200 15447725.488 17822365.676 10 0 60757 29700.00000 0 9996770.863 17492525.144 15639115.865 10 0 60757 30600.00000 0 10378188.760 19228482.223 13151986.948 10 0 60757 31500.00000 0 10807809.254 20619649.878 10409239.357 10 0 60757 32400.00000 0 11232168.697 21642018.918 7464131.341 10 0 60757 33300.00000 0 11595567.187 22284345.226 4373885.526 10 0 60757 34200.00000 0 11842613.726 22548455.880 1198575.217 10 0 60757 35100.00000 0 11920772.425 22449021.079 -2000047.608 10 0 60757 36000.00000 0 11782801.023 22012801.601 -5159759.335 10 0 60757 36900.00000 0 11388977.286 21277403.759 -8219082.439 10 0 60757 37800.00000 0 10709017.725 20289594.841 -11118489.315 10 0 60757 38700.00000 0 9723606.081 19103250.706 -13801567.853 10 0 60757 39600.00000 0 8425465.585 17777022.846 -16216125.201 10 0 60757 40500.00000 0 6819928.495 16371824.037 -18315207.595 10 0 60757 41400.00000 0 4924977.707 14948239.205 -20058016.032 10 0 60757 42300.00000 0 2770757.721 13563971.073 -21410699.802 10 0 60757 43200.00000 0 398574.628 12271428.316 -22347012.645 10 0 60757 44100.00000 0 -2140573.725 11115557.594 -22848819.107 10 0 60757 45000.00000 0 -4787876.525 10132010.204 -22906441.782 10 0 60757 45900.00000 0 -7478919.869 9345719.700 -22518843.289 10 0 60757 46800.00000 0 -10146136.155 8769949.268 -21693640.016 10 0 60757 47700.00000 0 -12721391.471 8405847.782 -20446947.884 10 0 60757 48600.00000 0 -15138603.894 8242531.984 -18803063.509 10 0 60757 49500.00000 0 -17336284.403 8257690.115 -16793987.250 10 0 60757 50400.00000 0 -19259895.305 8418680.470 -14458797.517 10 0 60757 51300.00000 0 -20863928.810 8684077.585 -11842888.616 10 0 60757 52200.00000 0 -22113619.993 9005600.036 -8997086.885 10 0 60757 53100.00000 0 -22986223.630 9330337.840 -5976662.349 10 0 60757 54000.00000 0 -23471802.601 9603184.886 -2840255.110 10 0 60757 54900.00000 0 -23573495.978 9769373.310 351262.662 10 0 60757 55800.00000 0 -23307256.591 9777002.415 3535966.907 10 0 60757 56700.00000 0 -22701070.067 9579455.107 6652081.071 10 0 60757 57600.00000 0 -21793688.972 9137599.562 9639171.458 10 0 60757 58500.00000 0 -20632935.808 8421682.956 12439315.367 10 0 60757 59400.00000 0 -19273646.543 7412837.050 14998219.594 10 0 60757 60300.00000 0 -17775341.133 6104131.698 17266267.984 10 0 60757 61200.00000 0 -16199718.625 4501131.252 19199478.155 10 0 60757 62100.00000 0 -14608081.529 2621929.564 20760349.485 10 0 60757 63000.00000 0 -13058796.783 496660.838 21918586.543 10 0 60757 63900.00000 0 -11604898.927 -1833494.633 22651684.500 10 0 60757 64800.00000 0 -10291935.050 -4317769.975 22945365.664 10 0 60757 65700.00000 0 -9156140.887 -6897677.440 22793858.908 10 0 60757 66600.00000 0 -8223023.747 -9509204.335 22200016.554 10 0 60757 67500.00000 0 -7506411.061 -12085249.487 21175266.160 10 0 60757 68400.00000 0 -7008004.048 -14558200.412 19739397.527 10 0 60757 69300.00000 0 -6717455.061 -16862545.129 17920188.271 10 0 60757 70200.00000 0 -6612965.342 -18937410.801 15752874.238 10 0 60757 71100.00000 0 -6662378.141 -20728923.978 13279474.046 10 0 60757 72000.00000 0 -6824721.254 -22192294.148 10547979.935 10 0 60757 72900.00000 0 -7052133.950 -23293533.479 7611429.917 10 0 60757 73800.00000 0 -7292096.783 -24010740.559 4526878.771 10 0 60757 74700.00000 0 -7489869.606 -24334893.929 1354287.780 10 0 60757 75600.00000 0 -7591034.024 -24270121.814 -1844644.972 10 0 60757 76500.00000 0 -7544031.690 -23833436.489 -5007690.497 10 0 60757 77400.00000 0 -7302589.810 -23053944.440 -8073306.689 10 0 60757 78300.00000 0 -6827929.849 -21971565.741 -10981843.411 10 0 60757 79200.00000 0 -6090664.542 -20635316.998 -13676710.506 10 0 60757 80100.00000 0 -5072301.591 -19101230.729 -16105485.093 10 0 60757 81000.00000 0 -3766289.185 -17429999.396 -18220935.975 10 0 60757 81900.00000 0 -2178558.024 -15684443.860 -19981944.812 10 0 60757 82800.00000 0 -327535.922 -13926913.176 -21354305.973 10 0 60757 83700.00000 0 1756366.547 -12216725.279 -22311389.695 10 0 60757 84600.00000 0 4031778.619 -10607755.938 -22834655.987 10 0 60757 85500.00000 0 6447857.966 -9146276.841 -22914009.806 10 0 60758 0.00000 0 8946183.529 -7869132.853 -22547991.244 10 0 60758 900.00000 0 11462975.456 -6802333.231 -21743797.343 10 0 60758 1800.00000 0 13931546.692 -5960116.313 -20517136.179 10 0 60758 2700.00000 0 16284889.004 -5344523.226 -18891915.842 10 0 60758 3600.00000 0 18458282.923 -4945498.761 -16899774.960 10 0 60758 4500.00000 0 20391824.699 -4741513.005 -14579463.975 10 0 60758 5400.00000 0 22032765.324 -4700676.293 -11976089.258 10 0 60758 6300.00000 0 23337564.735 -4782299.316 -9140234.765 10 0 60758 7200.00000 0 24273576.114 -4938831.540 -6126978.329 10 0 60758 8100.00000 0 24820290.707 -5118095.307 -2994821.718 10 0 60758 9000.00000 0 24970091.881 -5265720.599 195444.721 10 0 60758 9900.00000 0 24728487.660 -5327677.124 3381920.688 10 0 60758 10800.00000 0 24113812.792 -5252796.345 6502794.898 10 0 60758 11700.00000 0 23156413.483 -4995176.638 9497541.124 10 0 60758 12600.00000 0 21897349.578 -4516369.724 12308088.165 10 0 60758 13500.00000 0 20386668.902 -3787255.832 14879941.244 10 0 60758 14400.00000 0 18681326.246 -2789528.137 17163233.485 10 0 60758 15300.00000 0 16842834.024 -1516723.394 19113687.493 10 0 60758 16200.00000 0 14934742.593 25245.325 20693469.024 10 0 60758 17100.00000 0 13020055.011 1818077.256 21871916.821 10 0 60758 18000.00000 0 11158683.561 3831595.672 22626135.025 10 0 60758 18900.00000 0 9405053.406 6024762.892 22941437.170 10 0 60758 19800.00000 0 7805952.528 8347157.887 22811633.408 10 0 60758 20700.00000 0 6398716.893 10740856.624 22239155.400 10 0 60758 21600.00000 0 5209825.845 13142638.518 21235016.168 10 0 60758 22500.00000 0 4253965.822 15486428.699 19818605.082 10 0 60758 23400.00000 0 3533601.114 17705875.641 18017321.218 10 0 60758 24300.00000 0 3039069.293 19736957.792 15866051.162 10 0 60758 25200.00000 0 2749197.128 21520511.083 13406500.423 10 0 60758 26100.00000 0 2632410.937 23004572.044 10686390.513 10 0 60758 27000.00000 0 2648294.406 24146438.467 7758536.511 10 0 60758 27900.00000 0 2749527.936 24914360.999 4679822.549 10 0 60758 28800.00000 0 2884127.101 25288794.176 1510095.028 10 0 60758 29700.00000 0 2997884.927 25263153.842 -1689004.707 10 0 60758 30600.00000 0 3036913.699 24844048.558 -4855245.061 10 0 60758 31500.00000 0 2950177.571 24050974.932 -7927021.961 10 0 60758 32400.00000 0 2691907.448 22915489.479 -10844565.143 10 0 60758 33300.00000 0 2223794.532 21479891.973 -13551108.545 10 0 60758 34200.00000 0 1516868.341 19795475.907 -15994001.122 10 0 60758 35100.00000 0 552978.465 17920420.099 -18125735.824 10 0 60758 36000.00000 0 -674183.706 15917410.489 -19904876.292 10 0 60758 36900.00000 0 -2158567.489 13851092.426 -21296863.050 10 0 60758 37800.00000 0 -3881772.337 11785460.600 -22274683.677 10 0 60758 38700.00000 0 -5813584.653 9781296.040 -22819394.257 10 0 60758 39600.00000 0 -7913020.126 7893757.257 -22920482.458 10 0 60758 40500.00000 0 -10129828.547 6170225.756 -22576065.805 10 0 60758 41400.00000 0 -12406398.691 4648495.099 -21792921.842 10 0 60758 42300.00000 0 -14679984.146 3355378.109 -20586350.141 10 0 60758 43200.00000 0 -16885157.619 2305789.000 -18979869.239 10 0 60758 44100.00000 0 -18956391.730 1502337.291 -17004754.672 10 0 60758 45000.00000 0 -20830659.018 935448.816 -14699427.237 10 0 60758 45900.00000 0 -22449943.076 584007.095 -12108703.463 10 0 60758 46800.00000 0 -23763556.433 416486.549 -9282922.848 10 0 60758 47700.00000 0 -24730168.778 392528.438 -6276968.835 10 0 60758 48600.00000 0 -25319461.231 464891.925 -3149202.586 10 0 60758 49500.00000 0 -25513337.987 581696.985 39669.712 10 0 60758 50400.00000 0 -25306645.118 688863.670 3227773.920 10 0 60758 51300.00000 0 -24707366.951 732644.186 6353266.476 10 0 60758 52200.00000 0 -23736292.285 662140.358 9355531.130 10 0 60758 53100.00000 0 -22426164.778 431699.883 12176350.692 10 0 60758 54000.00000 0 -20820353.353 3089.951 14761031.302 10 0 60758 54900.00000 0 -18971098.292 -652643.737 17059457.728 10 0 60758 55800.00000 0 -16937406.267 -1553711.271 19027059.736 10 0 60758 56700.00000 0 -14782681.849 -2706568.394 20625671.356 10 0 60758 57600.00000 0 -12572193.809 -4105405.192 21824267.052 10 0 60758 58500.00000 0 -10370481.141 -5732156.097 22599561.079 10 0 60758 59400.00000 0 -8238806.011 -7557032.151 22936458.924 10 0 60758 60300.00000 0 -6232758.806 -9539554.785 22828352.327 10 0 60758 61200.00000 0 -4400114.075 -11630049.610 22277252.202 10 0 60758 62100.00000 0 -2779025.816 -13771539.569 21293756.573 10 0 60758 63000.00000 0 -1396636.547 -15901960.088 19896853.604 10 0 60758 63900.00000 0 -268157.568 -17956605.212 18113562.732 10 0 60758 64800.00000 0 603541.668 -19870703.762 15978419.915 10 0 60758 65700.00000 0 1227818.290 -21582018.667 13532815.947 10 0 60758 66600.00000 0 1625620.035 -23033361.149 10824199.782 10 0 60758 67500.00000 0 1828355.613 -24174914.474 7905161.552 10 0 60758 68400.00000 0 1876319.405 -24966269.531 4832412.595 10 0 60758 69300.00000 0 1816737.426 -25378086.161 1665682.189 10 0 60758 70200.00000 0 1701517.835 -25393309.693 -1533447.383 10 0 60758 71100.00000 0 1584801.967 -25007890.741 -4702744.293 10 0 60758 72000.00000 0 1520420.651 -24230977.253 -7780544.926 10 0 60758 72900.00000 0 1559364.717 -23084570.213 -10706961.353 10 0 60758 73800.00000 0 1747378.103 -21602657.146 -13425054.082 10 0 60758 74700.00000 0 2122776.779 -19829859.811 -15881946.356 10 0 60758 75600.00000 0 2714586.991 -17819653.039 -18029857.639 10 0 60758 76500.00000 0 3541082.688 -15632229.738 -19827035.755 10 0 60758 77400.00000 0 4608784.868 -13332101.946 -21238569.354 10 0 60758 78300.00000 0 5911965.890 -10985538.636 -22237065.016 10 0 60758 79200.00000 0 7432680.365 -8657947.573 -22803176.204 10 0 60758 80100.00000 0 9141321.916 -6411310.506 -22925974.232 10 0 60758 81000.00000 0 10997682.958 -4301778.361 -22603154.658 10 0 60758 81900.00000 0 12952473.546 -2377526.047 -21841075.654 10 0 60758 82800.00000 0 14949236.076 -676955.339 -20654628.139 10 0 60758 83700.00000 0 16926576.097 772680.498 -19066940.598 10 0 60758 84600.00000 0 18820616.308 1956174.491 -17108924.611 10 0 60758 85500.00000 0 20567571.425 2870750.304 -14818670.099 10 0 60759 0.00000 0 22106336.449 3525918.825 -12240702.360 10 0 60759 900.00000 0 23380981.173 3942815.085 -9425113.911 10 0 60759 1800.00000 0 24343044.814 4153044.206 -6426591.571 10 0 60759 2700.00000 0 24953537.775 4197087.576 -3303353.082 10 0 60759 3600.00000 0 25184564.878 4122336.754 -116017.369 10 0 60759 4500.00000 0 25020503.232 3980839.424 3073570.875 10 0 60759 5400.00000 0 24458685.507 3826853.258 6203539.162 10 0 60759 6300.00000 0 23509560.222 3714311.526 9213184.523 10 0 60759 7200.00000 0 22196322.488 3694307.836 12044146.953 10 0 60759 8100.00000 0 20554030.730 3812706.442 14641536.432 10 0 60759 9000.00000 0 18628246.200 4107979.122 16954992.036 10 0 60759 9900.00000 0 16473251.918 4609360.025 18939653.014 10 0 60759 10800.00000 0 14149924.875 5335396.499 20557023.643 10 0 60759 11700.00000 0 11723349.597 6292957.360 21775715.691 10 0 60759 12600.00000 0 9260271.643 7476740.981 22572054.700 10 0 60759 13500.00000 0 6826496.085 8869304.844 22930538.836 10 0 60759 14400.00000 0 4484338.102 10441616.580 22844141.681 10 0 60759 15300.00000 0 2290230.718 12154104.874 22314453.142 10 0 60759 16200.00000 0 292588.134 13958167.848 21351655.480 10 0 60759 17100.00000 0 -1469987.337 15798077.458 19974334.383 10 0 60759 18000.00000 0 -2970080.807 17613201.709 18209127.924 10 0 60759 18900.00000 0 -4192366.082 19340453.014 16090219.308 10 0 60759 19800.00000 0 -5133995.557 20916861.120 13658682.163 10 0 60759 20700.00000 0 -5804462.829 22282163.335 10961690.200 10 0 60759 21600.00000 0 -6224944.181 23381303.562 8051605.764 10 0 60759 22500.00000 0 -6427147.123 24166734.912 4984964.462 10 0 60759 23400.00000 0 -6451714.945 24600428.537 1821375.479 10 0 60759 24300.00000 0 -6346255.344 24655503.289 -1377640.908 10 0 60759 25200.00000 0 -6163077.225 24317406.683 -4549855.500 10 0 60759 26100.00000 0 -5956732.431 23584596.419 -7633547.858 10 0 60759 27000.00000 0 -5781467.585 22468692.935 -10568714.903 10 0 60759 27900.00000 0 -5688695.158 20994095.869 -13298245.987 10 0 60759 28800.00000 0 -5724592.059 19197080.116 -15769040.620 10 0 60759 29700.00000 0 -5927928.516 17124409.265 -17933046.463 10 0 60759 30600.00000 0 -6328220.143 14831524.522 -19748196.916 10 0 60759 31500.00000 0 -6944282.135 12380385.174 -21179229.846 10 0 60759 32400.00000 0 -7783247.348 9837051.068 -22198371.661 10 0 60759 33300.00000 0 -8840090.216 7269108.192 -22785873.746 10 0 60759 34200.00000 0 -10097676.975 4743044.737 -22930391.315 10 0 60759 35100.00000 0 -11527340.428 2321686.761 -22629197.889 10 0 60759 36000.00000 0 -13089955.385 61799.646 -21888231.854 10 0 60759 36900.00000 0 -14737469.874 -1988045.544 -20721974.680 10 0 60759 37800.00000 0 -16414828.143 -3789253.142 -19153163.632 10 0 60759 38700.00000 0 -18062205.082 -5314558.588 -17212344.810 10 0 60759 39600.00000 0 -19617458.619 -6548903.817 -14937275.416 10 0 60759 40500.00000 0 -21018697.525 -7489797.551 -12372186.935 10 0 60759 41400.00000 0 -22206857.224 -8147147.231 -9566923.560 10 0 60759 42300.00000 0 -23128175.762 -8542571.422 -6575972.638 10 0 60759 43200.00000 0 -23736466.270 -8708223.234 -3457405.991 10 0 60759 44100.00000 0 -23995090.747 -8685175.742 -271752.720 10 0 60759 45000.00000 0 -23878552.461 -8521438.624 2919174.534 10 0 60759 45900.00000 0 -23373640.252 -8269690.664 6053477.006 10 0 60759 46800.00000 0 -22480076.777 -7984824.466 9070367.665 10 0 60759 47700.00000 0 -21210643.493 -7721407.509 11911346.315 10 0 60759 48600.00000 0 -19590776.992 -7531166.931 14521329.316 10 0 60759 49500.00000 0 -17657653.301 -7460604.297 16849712.403 10 0 60759 50400.00000 0 -15458797.984 -7548840.933 18851346.414 10 0 60759 51300.00000 0 -13050279.438 -7825784.693 20487407.619 10 0 60759 52200.00000 0 -10494559.894 -8310695.463 21726146.435 10 0 60759 53100.00000 0 -7858092.638 -9011210.061 22543500.585 10 0 60759 54000.00000 0 -5208764.316 -9922868.093 22923561.336 10 0 60759 54900.00000 0 -2613287.437 -11029159.521 22858884.088 10 0 60759 55800.00000 0 -134650.245 -12302093.033 22350637.306 10 0 60759 56700.00000 0 2170271.214 -13703262.736 21408586.686 10 0 60759 57600.00000 0 4252840.630 -15185369.853 20050914.310 10 0 60759 58500.00000 0 6074440.910 -16694137.087 18303875.484 10 0 60759 59400.00000 0 7607832.213 -18170536.631 16201298.994 10 0 60759 60300.00000 0 8838032.452 -19553239.443 13783939.416 10 0 60759 61200.00000 0 9762683.912 -20781183.585 11098693.109 10 0 60759 62100.00000 0 10391891.027 -21796153.998 8197692.332 10 0 60759 63000.00000 0 10747536.545 -22545265.085 5137294.522 10 0 60759 63900.00000 0 10862105.324 -22983241.019 1976986.223 10 0 60759 64800.00000 0 10777065.923 -23074396.906 -1221776.878 10 0 60759 65700.00000 0 10540879.062 -22794236.221 -4396770.794 10 0 60759 66600.00000 0 10206718.023 -22130596.037 -7486220.793 10 0 60759 67500.00000 0 9829998.478 -21084290.646 -10430011.095 10 0 60759 68400.00000 0 9465823.383 -19669225.454 -13170862.223 10 0 60759 69300.00000 0 9166452.251 -17911975.547 -15655452.152 10 0 60759 70200.00000 0 8978902.956 -15850846.082 -17835458.756 10 0 60759 71100.00000 0 8942788.439 -13534453.537 -19668502.793 10 0 60759 72000.00000 0 9088480.541 -11019887.152 -21118972.859 10 0 60759 72900.00000 0 9435679.031 -8370527.379 -22158716.369 10 0 60759 73800.00000 0 9992446.612 -5653612.404 -22767583.457 10 0 60759 74700.00000 0 10754750.735 -2937654.165 -22933813.685 10 0 60759 75600.00000 0 11706531.634 -289811.236 -22654258.630 10 0 60759 76500.00000 0 12820293.712 2226672.549 -21934436.635 10 0 60759 77400.00000 0 14058195.411 4554857.852 -20788419.157 10 0 60759 78300.00000 0 15373591.724 6646229.508 -19238551.372 10 0 60759 79200.00000 0 16712964.623 8462459.179 -17315012.749 10 0 60759 80100.00000 0 18018160.292 9976738.936 -15055226.328 10 0 60759 81000.00000 0 19228839.303 11174631.821 -12503128.278 10 0 60759 81900.00000 0 20285036.887 12054405.587 -9708311.941 10 0 60759 82800.00000 0 21129725.773 12626837.412 -6725063.046 10 0 60759 83700.00000 0 21711273.985 12914499.499 -3611304.867 10 0 60759 84600.00000 0 21985694.354 12950557.168 -427473.833 10 0 60759 85500.00000 0 21918591.181 12777131.360 2764652.448 99